Location: Newark
(46.9000°N, 28.3500°E)
Time: 12:53:46
(UTC+00:00)

Explorer 7 - Pass Details

Date: 02 September 2019
Orbit: 485 x 680 km, 50.3° (Epoch: 19 September)

Event Time Altitude Azimuth Distance (km) Brightness Sun altitude
Rises 07:03:52 0° 282° (WNW) 3,028 10.1 35.1°
Reaches altitude 10° 07:06:19 10° 287° (WNW) 2,102 9.4 35.4°
Maximum altitude 07:11:07 59° 7° (N) 758 7.9 36.1°
Drops below altitude 10° 07:15:44 10° 87° (E) 2,013 10.5 36.8°
Sets 07:18:01 0° 91° (E) 2,889 11.2 37.1°
